Location: *
(46.0770°N, 1.6444°E)
Time: 14:48:13
(UTC+00:00)

CZ-2C R/B - Pass Details

Date: 19 December 2019
Orbit: 785 x 870 km, 98.3° (Epoch: 21 January)

Event Time Altitude Azimuth Distance (km) Brightness Sun altitude
Rises 06:34:37 0° 134° (SE) 3,300 7.3 -9.4°
Reaches altitude 10° 06:37:12 10° 123° (ESE) 2,364 6.6 -9.0°
Maximum altitude 06:41:38 30° 65° (ENE) 1,405 4.4 -8.3°
Drops below altitude 10° 06:46:04 10° 6° (N) 2,356 4.8 -7.6°
Sets 06:48:38 0° 356° (N) 3,288 5.5 -7.2°
